Retour au catalogue

KUIPER-00483

ActifCommunicationsLEO
NORAD 68878·PAYLOAD·🇺🇸 United States

Lancé Apr 28, 2026 depuis Cape Canaveral Space Force Station

Loading…

Prochains Passages (prochaines 24 heures)

TLE

FraisSource: CelesTrak SupGP

Époque: Sep 14, 2026, 23:39 UTC

1 68878C 26095Q   26257.98587963 -.00005244  00000+0 -68557-3 0  2573
2 68878  51.8981 216.0357 0001776 334.3645  72.3908 14.79987989    15

Suivez KUIPER-00483 en temps réel avec AllMySat

Download on the App Store